Time,TemperatureF,DewpointF,PressureIn,WindDirection,WindDirectionDegrees,WindSpeedMPH,WindSpeedGustMPH,Humidity,HourlyPrecipIn,Conditions,Clouds,dailyrainin,SoftwareType,DateUTC
2013-04-12 00:00:00,48.7,45.6,30.01,NNE,22,12.1,32.2,89,10.28,,---,0.02,VWS V12.08,2013-04-12 04:00:00,
2013-04-12 00:05:00,48.8,45.7,30.01,NNE,28,8.3,32.2,89,10.28,,---,0.00,VWS V12.08,2013-04-12 04:05:00,
2013-04-12 00:10:00,48.6,45.5,30.01,East,83,4.4,32.2,89,10.28,,---,0.00,VWS V12.08,2013-04-12 04:10:00,
2013-04-12 00:15:00,48.7,45.5,30.01,NNE,14,5.5,32.2,89,10.28,,---,0.00,VWS V12.08,2013-04-12 04:15:00,
2013-04-12 00:20:00,48.5,45.3,30.01,NNE,31,7.3,32.2,89,10.28,,---,0.00,VWS V12.08,2013-04-12 04:20:00,
2013-04-12 00:25:00,48.6,45.3,30.00,NE,51,8.1,32.2,88,10.28,,---,0.00,VWS V12.08,2013-04-12 04:25:00,
2013-04-12 00:30:00,48.8,45.6,30.00,North,6,5.8,32.2,89,10.28,,---,0.00,VWS V12.08,2013-04-12 04:30:00,
2013-04-12 00:35:00,48.6,45.4,30.00,NNE,17,5.8,32.2,89,10.28,,---,0.00,VWS V12.08,2013-04-12 04:35:00,
2013-04-12 00:40:00,48.5,45.3,30.00,NNE,25,7.3,32.2,88,10.28,,---,0.00,VWS V12.08,2013-04-12 04:40:00,
2013-04-12 00:45:00,48.2,45.0,30.00,ENE,60,6.0,32.2,89,10.28,,---,0.00,VWS V12.08,2013-04-12 04:45:00,
2013-04-12 00:50:00,48.3,45.2,30.00,NNE,14,9.9,32.2,89,10.28,,---,0.00,VWS V12.08,2013-04-12 04:50:00,
2013-04-12 00:55:00,48.3,45.2,29.99,NE,49,8.5,32.2,89,10.28,,---,0.00,VWS V12.08,2013-04-12 04:55:00,
2013-04-12 01:00:00,48.2,45.1,29.99,NE,56,8.8,32.2,89,10.28,,---,0.00,VWS V12.08,2013-04-12 05:00:00,
2013-04-12 01:05:00,48.0,44.9,29.99,NNE,32,13.3,32.2,89,10.28,,---,0.00,VWS V12.08,2013-04-12 05:05:00,
2013-04-12 01:10:00,48.1,44.9,29.99,NE,52,5.6,32.2,89,10.28,,---,0.00,VWS V12.08,2013-04-12 05:10:00,
2013-04-12 01:15:00,48.1,45.0,29.99,NNW,336,8.1,32.2,89,10.28,,---,0.00,VWS V12.08,2013-04-12 05:15:00,
2013-04-12 01:20:00,48.1,44.8,29.99,North,6,3.3,32.2,88,10.28,,---,0.00,VWS V12.08,2013-04-12 05:20:00,
2013-04-12 01:25:00,48.2,44.8,29.99,East,83,7.1,32.2,88,10.28,,---,0.00,VWS V12.08,2013-04-12 05:25:00,
2013-04-12 01:30:00,48.1,44.8,29.99,NE,51,9.4,32.2,88,10.28,,---,0.00,VWS V12.08,2013-04-12 05:30:00,
2013-04-12 01:35:00,48.2,44.9,29.99,NE,55,7.0,32.2,88,10.28,,---,0.00,VWS V12.08,2013-04-12 05:35:00,
2013-04-12 01:40:00,48.2,44.8,30.00,NNE,28,6.6,32.2,88,10.28,,---,0.00,VWS V12.08,2013-04-12 05:40:00,
2013-04-12 01:45:00,48.3,44.8,30.00,NE,39,6.5,32.2,88,10.28,,---,0.00,VWS V12.08,2013-04-12 05:45:00,
2013-04-12 01:50:00,48.1,44.6,29.99,NNE,22,10.4,32.2,88,10.28,,---,0.00,VWS V12.08,2013-04-12 05:50:00,
2013-04-12 01:55:00,48.0,44.6,29.99,NNE,32,5.6,32.2,88,10.28,,---,0.00,VWS V12.08,2013-04-12 05:55:00,
2013-04-12 02:00:00,48.1,44.7,29.99,NE,55,6.5,32.2,88,10.28,,---,0.00,VWS V12.08,2013-04-12 06:00:00,
2013-04-12 02:05:00,48.1,44.7,29.99,North,356,9.8,32.2,88,10.28,,---,0.00,VWS V12.08,2013-04-12 06:05:00,
2013-04-12 02:10:00,47.9,44.5,30.00,ENE,77,8.9,32.2,88,10.28,,---,0.00,VWS V12.08,2013-04-12 06:10:00,
2013-04-12 02:15:00,47.8,44.5,29.99,NE,55,9.5,32.2,88,10.28,,---,0.00,VWS V12.08,2013-04-12 06:15:00,
2013-04-12 02:20:00,47.7,44.5,29.99,NE,41,8.5,32.2,89,10.28,,---,0.00,VWS V12.08,2013-04-12 06:20:00,
2013-04-12 02:25:00,47.8,44.7,29.99,ENE,77,7.0,32.2,89,10.28,,---,0.00,VWS V12.08,2013-04-12 06:25:00,
2013-04-12 02:30:00,47.7,44.8,29.99,NNE,18,6.8,32.2,90,10.28,,---,0.00,VWS V12.08,2013-04-12 06:30:00,
2013-04-12 02:35:00,47.5,44.8,29.99,ENE,68,8.5,32.2,90,10.28,,---,0.00,VWS V12.08,2013-04-12 06:35:00,
2013-04-12 02:40:00,47.6,44.9,29.98,NE,42,8.7,32.2,90,10.28,,---,0.00,VWS V12.08,2013-04-12 06:40:00,
2013-04-12 02:45:00,47.6,45.0,29.98,NE,51,7.9,32.2,90,10.28,,---,0.00,VWS V12.08,2013-04-12 06:45:00,
2013-04-12 02:50:00,47.4,44.8,29.98,NE,34,8.7,32.2,91,10.28,,---,0.00,VWS V12.08,2013-04-12 06:50:00,
2013-04-12 02:55:00,47.5,45.0,29.98,ENE,60,8.9,32.2,91,10.28,,---,0.00,VWS V12.08,2013-04-12 06:55:00,
2013-04-12 03:00:00,47.4,44.8,29.99,ENE,75,7.5,32.2,91,10.28,,---,0.00,VWS V12.08,2013-04-12 07:00:00,
2013-04-12 03:05:00,47.2,44.7,29.98,NE,49,2.9,32.2,91,10.28,,---,0.00,VWS V12.08,2013-04-12 07:05:00,
2013-04-12 03:10:00,47.3,44.8,29.98,NE,49,7.3,32.2,91,10.28,,---,0.00,VWS V12.08,2013-04-12 07:10:00,
2013-04-12 03:15:00,47.3,44.8,29.98,NE,56,11.4,32.2,91,10.28,,---,0.00,VWS V12.08,2013-04-12 07:15:00,
2013-04-12 03:20:00,47.2,44.7,29.97,NE,44,8.5,32.2,91,10.28,,---,0.00,VWS V12.08,2013-04-12 07:20:00,
2013-04-12 03:25:00,47.3,44.9,29.98,NE,34,11.9,32.2,91,10.28,,---,0.00,VWS V12.08,2013-04-12 07:25:00,
2013-04-12 03:30:00,47.2,44.8,29.98,NNE,22,7.6,32.2,91,10.28,,---,0.00,VWS V12.08,2013-04-12 07:30:00,
2013-04-12 03:35:00,47.2,44.8,29.98,NE,38,5.4,32.2,91,10.28,,---,0.00,VWS V12.08,2013-04-12 07:35:00,
2013-04-12 03:40:00,47.3,44.9,29.98,North,3,12.9,32.2,91,10.28,,---,0.00,VWS V12.08,2013-04-12 07:40:00,
2013-04-12 03:45:00,47.1,44.7,29.98,East,89,4.3,32.2,91,10.28,,---,0.00,VWS V12.08,2013-04-12 07:45:00,
2013-04-12 03:50:00,47.4,45.0,29.98,East,82,7.2,32.2,91,10.28,,---,0.00,VWS V12.08,2013-04-12 07:50:00,
2013-04-12 03:55:00,47.2,44.9,29.98,ENE,65,8.8,32.2,92,10.28,,---,0.00,VWS V12.08,2013-04-12 07:55:00,
2013-04-12 04:00:00,47.3,45.1,29.99,East,84,9.4,32.2,92,10.28,,---,0.00,VWS V12.08,2013-04-12 08:00:00,
2013-04-12 04:05:00,47.2,45.1,29.98,East,82,7.8,32.2,92,10.28,,---,0.00,VWS V12.08,2013-04-12 08:05:00,
2013-04-12 04:10:00,47.0,45.1,29.99,NE,52,11.0,32.2,93,10.28,,---,0.00,VWS V12.08,2013-04-12 08:10:00,
2013-04-12 04:15:00,46.9,45.2,29.98,NNE,31,8.6,32.2,94,10.28,,---,0.00,VWS V12.08,2013-04-12 08:15:00,
2013-04-12 04:20:00,46.7,45.2,29.98,NE,49,8.0,32.2,94,10.28,,---,0.00,VWS V12.08,2013-04-12 08:20:00,
2013-04-12 04:25:00,46.6,45.3,29.98,NNE,13,8.6,32.2,95,10.28,,---,0.00,VWS V12.08,2013-04-12 08:25:00,
2013-04-12 04:30:00,46.3,45.1,29.97,NE,55,9.6,32.2,96,10.28,,---,0.00,VWS V12.08,2013-04-12 08:30:00,
2013-04-12 04:35:00,46.2,45.2,29.97,NE,38,10.4,32.2,96,10.28,,---,0.00,VWS V12.08,2013-04-12 08:35:00,
2013-04-12 04:40:00,45.9,45.1,29.97,North,353,7.5,32.2,97,10.28,,---,0.00,VWS V12.08,2013-04-12 08:40:00,
2013-04-12 04:45:00,45.8,45.2,29.97,NNE,18,10.3,32.2,98,10.28,,---,0.00,VWS V12.08,2013-04-12 08:45:00,
2013-04-12 04:50:00,45.6,45.1,29.97,NNE,31,11.8,32.2,98,10.28,,---,0.00,VWS V12.08,2013-04-12 08:50:00,
2013-04-12 04:55:00,45.5,45.2,29.97,ENE,65,5.4,32.2,99,10.28,,---,0.00,VWS V12.08,2013-04-12 08:55:00,
2013-04-12 05:00:00,45.5,45.3,29.97,North,4,15.7,32.2,99,10.28,,---,0.00,VWS V12.08,2013-04-12 09:00:00,
2013-04-12 05:05:00,45.4,45.3,29.97,NNE,21,12.2,32.2,100,10.28,,---,0.00,VWS V12.08,2013-04-12 09:05:00,
2013-04-12 05:10:00,45.0,45.0,29.97,ENE,58,7.5,32.2,100,10.28,,---,0.00,VWS V12.08,2013-04-12 09:10:00,
2013-04-12 05:15:00,45.1,45.1,29.97,ENE,58,8.9,32.2,100,10.28,,---,0.00,VWS V12.08,2013-04-12 09:15:00,
2013-04-12 05:20:00,45.1,45.1,29.97,NE,34,9.4,32.2,100,10.28,,---,0.00,VWS V12.08,2013-04-12 09:20:00,
2013-04-12 05:25:00,45.0,45.0,29.96,ENE,69,12.3,32.2,100,10.28,,---,0.00,VWS V12.08,2013-04-12 09:25:00,
2013-04-12 05:30:00,44.9,44.9,29.96,ENE,68,10.3,32.2,100,10.28,,---,0.00,VWS V12.08,2013-04-12 09:30:00,
2013-04-12 05:35:00,44.7,44.7,29.96,NE,51,15.0,32.2,100,10.28,,---,0.00,VWS V12.08,2013-04-12 09:35:00,
2013-04-12 05:40:00,44.6,44.6,29.96,ENE,60,11.4,32.2,100,10.28,,---,0.00,VWS V12.08,2013-04-12 09:40:00,
2013-04-12 05:45:00,44.4,44.4,29.95,ENE,58,8.0,32.2,100,10.28,,---,0.00,VWS V12.08,2013-04-12 09:45:00,
2013-04-12 05:50:00,44.2,44.2,29.95,NE,39,13.4,32.2,100,10.28,,---,0.00,VWS V12.08,2013-04-12 09:50:00,
2013-04-12 05:55:00,44.1,44.1,29.93,ENE,65,14.7,32.2,100,10.28,,---,0.00,VWS V12.08,2013-04-12 09:55:00,
2013-04-12 06:00:00,44.2,44.2,29.95,NNE,32,7.8,32.2,100,10.28,,---,0.00,VWS V12.08,2013-04-12 10:00:00,
2013-04-12 06:05:00,43.9,43.9,29.95,North,359,11.8,32.2,100,10.28,,---,0.00,VWS V12.08,2013-04-12 10:05:00,
2013-04-12 06:10:00,44.0,44.0,29.95,NNE,14,17.3,32.2,100,10.28,,---,0.00,VWS V12.08,2013-04-12 10:10:00,
2013-04-12 06:15:00,44.1,44.1,29.95,East,97,8.3,32.2,100,10.28,,---,0.00,VWS V12.08,2013-04-12 10:15:00,
2013-04-12 06:20:00,43.8,43.8,29.95,NE,48,13.5,32.2,100,10.28,,---,0.00,VWS V12.08,2013-04-12 10:20:00,
2013-04-12 06:25:00,43.9,43.9,29.94,NE,39,10.7,32.2,100,10.28,,---,0.00,VWS V12.08,2013-04-12 10:25:00,
2013-04-12 06:30:00,43.9,43.9,29.94,NNE,31,17.6,32.2,100,10.28,,---,0.00,VWS V12.08,2013-04-12 10:30:00,
2013-04-12 06:35:00,43.9,43.9,29.94,ENE,60,13.5,32.2,100,10.28,,---,0.00,VWS V12.08,2013-04-12 10:35:00,
2013-04-12 06:40:00,44.0,44.0,29.94,NE,34,12.4,32.2,100,10.28,,---,0.00,VWS V12.08,2013-04-12 10:40:00,
2013-04-12 06:45:00,43.9,43.9,29.94,NE,38,10.1,32.2,100,10.28,,---,0.00,VWS V12.08,2013-04-12 10:45:00,
2013-04-12 06:50:00,43.9,43.8,29.94,NNE,20,13.0,32.2,100,10.28,,---,0.00,VWS V12.08,2013-04-12 10:50:00,
2013-04-12 06:55:00,43.8,43.6,29.94,NE,42,11.2,32.2,99,10.28,,---,0.00,VWS V12.08,2013-04-12 10:55:00,
2013-04-12 07:00:00,43.8,43.6,29.93,NE,46,11.3,32.2,99,10.28,,---,0.00,VWS V12.08,2013-04-12 11:00:00,
2013-04-12 07:05:00,43.9,43.7,29.93,ENE,68,6.2,32.2,99,10.28,,---,0.00,VWS V12.08,2013-04-12 11:05:00,
2013-04-12 07:10:00,43.7,43.6,29.92,NE,35,12.6,32.2,100,10.28,,---,0.00,VWS V12.08,2013-04-12 11:10:00,
2013-04-12 07:15:00,43.7,43.6,29.92,NE,42,13.1,32.2,100,10.28,,---,0.00,VWS V12.08,2013-04-12 11:15:00,
2013-04-12 07:20:00,43.8,43.8,29.92,NE,52,11.9,32.2,100,10.28,,---,0.00,VWS V12.08,2013-04-12 11:20:00,
2013-04-12 07:25:00,43.5,43.5,29.92,ENE,63,12.1,32.2,100,10.28,,---,0.00,VWS V12.08,2013-04-12 11:25:00,
2013-04-12 07:30:00,43.8,43.8,29.91,ENE,76,11.6,32.2,100,10.28,,---,0.00,VWS V12.08,2013-04-12 11:30:00,
2013-04-12 07:35:00,43.7,43.7,29.92,NNE,24,10.1,32.2,100,10.29,,---,0.01,VWS V12.08,2013-04-12 11:35:00,
2013-04-12 07:40:00,43.6,43.6,29.91,NE,53,16.0,32.2,100,10.29,,---,0.01,VWS V12.08,2013-04-12 11:40:00,
2013-04-12 07:45:00,43.5,43.5,29.91,ENE,63,12.6,32.2,100,10.29,,---,0.01,VWS V12.08,2013-04-12 11:45:00,
2013-04-12 07:50:00,43.6,43.6,29.90,NE,46,14.4,32.2,100,10.29,,---,0.02,VWS V12.08,2013-04-12 11:50:00,
2013-04-12 07:55:00,43.5,43.5,29.91,NE,52,6.2,32.2,100,10.30,,---,0.02,VWS V12.08,2013-04-12 11:55:00,
2013-04-12 08:00:00,43.5,43.4,29.90,NE,42,12.0,32.2,100,10.30,,---,0.02,VWS V12.08,2013-04-12 12:00:00,
2013-04-12 08:05:00,43.5,43.5,29.90,NE,53,12.4,32.2,100,10.30,,---,0.02,VWS V12.08,2013-04-12 12:05:00,
2013-04-12 08:10:00,43.4,43.4,29.90,NE,51,11.9,32.2,100,10.30,,---,0.02,VWS V12.08,2013-04-12 12:10:00,
2013-04-12 08:15:00,43.1,43.1,29.90,NE,37,7.1,32.2,100,10.30,,---,0.02,VWS V12.08,2013-04-12 12:15:00,
2013-04-12 08:20:00,43.2,43.2,29.90,NE,44,7.1,32.2,100,10.30,,---,0.02,VWS V12.08,2013-04-12 12:20:00,
2013-04-12 08:25:00,43.2,43.2,29.90,NNE,21,5.2,32.2,100,10.30,,---,0.02,VWS V12.08,2013-04-12 12:25:00,
2013-04-12 08:30:00,43.1,43.1,29.90,NE,56,7.5,32.2,100,10.31,,---,0.03,VWS V12.08,2013-04-12 12:30:00,
2013-04-12 08:35:00,43.2,43.2,29.90,NE,37,11.6,32.2,100,10.32,,---,0.04,VWS V12.08,2013-04-12 12:35:00,
2013-04-12 08:40:00,43.1,43.1,29.90,NE,52,12.6,32.2,100,10.32,,---,0.04,VWS V12.08,2013-04-12 12:40:00,
2013-04-12 08:45:00,43.1,43.1,29.90,East,80,5.8,32.2,100,10.32,,---,0.04,VWS V12.08,2013-04-12 12:45:00,
2013-04-12 08:50:00,43.0,43.0,29.90,ENE,72,10.0,32.2,100,10.32,,---,0.04,VWS V12.08,2013-04-12 12:50:00,
2013-04-12 08:55:00,43.1,43.1,29.90,East,79,7.7,32.2,100,10.32,,---,0.04,VWS V12.08,2013-04-12 12:55:00,
2013-04-12 09:00:00,42.9,42.9,29.90,NNE,22,10.1,32.2,100,10.33,,---,0.06,VWS V12.08,2013-04-12 13:00:00,
2013-04-12 09:05:00,42.7,42.7,29.89,NNE,25,11.1,32.2,100,10.36,,---,0.08,VWS V12.08,2013-04-12 13:05:00,
2013-04-12 09:10:00,42.5,42.5,29.89,NE,45,9.9,32.2,100,10.38,,---,0.10,VWS V12.08,2013-04-12 13:10:00,
2013-04-12 09:15:00,42.5,42.5,29.89,NE,39,8.0,32.2,100,10.40,,---,0.12,VWS V12.08,2013-04-12 13:15:00,
2013-04-12 09:20:00,42.5,42.5,29.89,NE,46,5.7,32.2,100,10.42,,---,0.14,VWS V12.08,2013-04-12 13:20:00,
2013-04-12 09:25:00,42.3,42.3,29.89,ENE,72,8.0,32.2,100,10.46,,---,0.18,VWS V12.08,2013-04-12 13:25:00,
2013-04-12 09:30:00,42.3,42.3,29.88,NE,46,6.8,32.2,100,10.47,,---,0.19,VWS V12.08,2013-04-12 13:30:00,
2013-04-12 09:35:00,42.4,42.4,29.88,NE,48,6.7,32.2,100,10.47,,---,0.19,VWS V12.08,2013-04-12 13:35:00,
2013-04-12 09:40:00,42.3,42.3,29.88,NNE,14,7.8,32.2,100,10.48,,---,0.20,VWS V12.08,2013-04-12 13:40:00,
2013-04-12 09:45:00,42.1,42.1,29.88,NE,41,4.6,32.2,100,10.48,,---,0.20,VWS V12.08,2013-04-12 13:45:00,
2013-04-12 09:50:00,42.3,42.3,29.89,NNE,18,6.4,32.2,100,10.48,,---,0.20,VWS V12.08,2013-04-12 13:50:00,
2013-04-12 09:55:00,42.3,42.3,29.89,NE,35,4.9,32.2,100,10.49,,---,0.21,VWS V12.08,2013-04-12 13:55:00,
2013-04-12 10:00:00,42.3,42.3,29.89,NE,34,13.0,32.2,100,10.50,,---,0.23,VWS V12.08,2013-04-12 14:00:00,
2013-04-12 10:05:00,42.2,42.2,29.90,NNE,28,10.0,32.2,100,10.54,,---,0.26,VWS V12.08,2013-04-12 14:05:00,
2013-04-12 10:10:00,42.2,42.2,29.89,NE,37,8.0,32.2,100,10.56,,---,0.28,VWS V12.08,2013-04-12 14:10:00,
2013-04-12 10:15:00,42.3,42.3,29.88,North,8,4.8,32.2,100,10.58,,---,0.30,VWS V12.08,2013-04-12 14:15:00,
2013-04-12 10:20:00,42.2,42.2,29.88,NE,46,8.5,32.2,100,10.58,,---,0.31,VWS V12.08,2013-04-12 14:20:00,
2013-04-12 10:25:00,42.3,42.3,29.88,NE,34,6.2,32.2,100,10.60,,---,0.32,VWS V12.08,2013-04-12 14:25:00,
2013-04-12 10:30:00,42.5,42.5,29.89,NNE,28,7.8,32.2,100,10.61,,---,0.33,VWS V12.08,2013-04-12 14:30:00,
2013-04-12 10:35:00,42.3,42.3,29.88,NNE,18,4.5,32.2,100,10.64,,---,0.36,VWS V12.08,2013-04-12 14:35:00,
2013-04-12 10:40:00,42.3,42.3,29.88,NE,55,4.7,32.2,100,10.65,,---,0.37,VWS V12.08,2013-04-12 14:40:00,
2013-04-12 10:45:00,42.1,42.1,29.86,NNE,17,14.7,32.2,100,10.66,,---,0.38,VWS V12.08,2013-04-12 14:45:00,
2013-04-12 10:50:00,42.3,42.3,29.87,NE,37,14.1,32.2,100,10.66,,---,0.38,VWS V12.08,2013-04-12 14:50:00,
2013-04-12 10:55:00,42.2,42.2,29.87,North,1,5.2,32.2,100,10.67,,---,0.39,VWS V12.08,2013-04-12 14:55:00,
2013-04-12 11:00:00,42.3,42.3,29.89,ENE,65,9.8,32.2,100,10.68,,---,0.40,VWS V12.08,2013-04-12 15:00:00,
2013-04-12 11:05:00,42.3,42.3,29.87,NE,42,8.5,32.2,100,10.70,,---,0.42,VWS V12.08,2013-04-12 15:05:00,
2013-04-12 11:10:00,42.2,42.2,29.89,NE,51,0.0,32.2,100,10.71,,---,0.43,VWS V12.08,2013-04-12 15:10:00,
2013-04-12 11:15:00,42.4,42.4,29.89,NNE,14,0.0,32.2,100,10.73,,---,0.45,VWS V12.08,2013-04-12 15:15:00,
2013-04-12 11:20:00,42.4,42.4,29.88,NE,42,7.2,32.2,100,10.74,,---,0.46,VWS V12.08,2013-04-12 15:20:00,
2013-04-12 11:25:00,42.3,42.3,29.89,NE,38,0.0,32.2,100,10.74,,---,0.46,VWS V12.08,2013-04-12 15:25:00,
2013-04-12 11:30:00,42.6,42.6,29.89,NNE,21,0.0,32.2,100,10.75,,---,0.47,VWS V12.08,2013-04-12 15:30:00,
2013-04-12 11:35:00,42.7,42.7,29.88,NNE,27,9.6,32.2,100,10.76,,---,0.48,VWS V12.08,2013-04-12 15:35:00,
2013-04-12 11:40:00,42.6,42.6,29.87,NE,48,7.1,32.2,100,10.76,,---,0.48,VWS V12.08,2013-04-12 15:40:00,
2013-04-12 11:45:00,42.6,42.6,29.87,NNE,13,10.6,32.2,100,10.77,,---,0.49,VWS V12.08,2013-04-12 15:45:00,
2013-04-12 11:50:00,42.6,42.6,29.86,NE,49,6.8,32.2,100,10.77,,---,0.49,VWS V12.08,2013-04-12 15:50:00,
2013-04-12 11:55:00,42.6,42.6,29.85,ENE,63,5.3,32.2,100,10.78,,---,0.50,VWS V12.08,2013-04-12 15:55:00,
2013-04-12 12:00:00,42.8,42.8,29.85,NE,52,10.7,32.2,100,10.78,,---,0.50,VWS V12.08,2013-04-12 16:00:00,
2013-04-12 12:05:00,42.6,42.6,29.84,NE,53,12.4,32.2,100,10.79,,---,0.51,VWS V12.08,2013-04-12 16:05:00,
2013-04-12 12:10:00,42.5,42.5,29.83,North,4,11.6,32.2,100,10.80,,---,0.52,VWS V12.08,2013-04-12 16:10:00,
2013-04-12 12:15:00,42.8,42.8,29.83,NNE,27,17.4,32.2,100,10.80,,---,0.52,VWS V12.08,2013-04-12 16:15:00,
2013-04-12 12:20:00,42.7,42.7,29.83,North,6,4.8,32.2,100,10.80,,---,0.52,VWS V12.08,2013-04-12 16:20:00,
2013-04-12 12:25:00,42.8,42.8,29.82,NE,34,7.3,32.2,100,10.81,,---,0.53,VWS V12.08,2013-04-12 16:25:00,
2013-04-12 12:30:00,43.0,43.0,29.81,NNE,32,8.5,32.2,100,10.81,,---,0.53,VWS V12.08,2013-04-12 16:30:00,
2013-04-12 12:35:00,42.9,42.9,29.81,NE,46,15.7,32.2,100,10.81,,---,0.53,VWS V12.08,2013-04-12 16:35:00,
2013-04-12 12:40:00,42.9,42.9,29.81,North,4,16.9,32.2,100,10.81,,---,0.53,VWS V12.08,2013-04-12 16:40:00,
2013-04-12 12:45:00,43.0,43.0,29.81,North,3,16.2,32.2,100,10.81,,---,0.53,VWS V12.08,2013-04-12 16:45:00,
2013-04-12 12:50:00,42.7,42.7,29.81,NNE,15,12.0,32.2,100,10.81,,---,0.53,VWS V12.08,2013-04-12 16:50:00,
2013-04-12 12:55:00,43.1,43.1,29.81,NNE,24,10.2,32.2,100,10.81,,---,0.53,VWS V12.08,2013-04-12 16:55:00,
2013-04-12 13:00:00,43.2,43.2,29.81,NNE,32,7.8,32.2,100,10.81,,---,0.53,VWS V12.08,2013-04-12 17:00:00,
2013-04-12 13:05:00,43.3,43.3,29.80,North,359,6.6,32.2,100,10.81,,---,0.53,VWS V12.08,2013-04-12 17:05:00,
2013-04-12 13:10:00,43.3,43.3,29.80,NE,48,5.8,32.2,100,10.82,,---,0.54,VWS V12.08,2013-04-12 17:10:00,
2013-04-12 13:15:00,43.2,43.2,29.80,North,352,12.2,32.2,100,10.82,,---,0.54,VWS V12.08,2013-04-12 17:15:00,
2013-04-12 13:20:00,43.2,43.2,29.80,NNE,13,10.2,32.2,100,10.82,,---,0.54,VWS V12.08,2013-04-12 17:20:00,
2013-04-12 13:25:00,43.1,43.1,29.80,North,4,10.7,32.2,100,10.82,,---,0.54,VWS V12.08,2013-04-12 17:25:00,
2013-04-12 13:30:00,43.0,43.0,29.79,NNE,14,11.1,32.2,100,10.82,,---,0.54,VWS V12.08,2013-04-12 17:30:00,
2013-04-12 13:35:00,42.8,42.8,29.79,NE,49,8.0,32.2,100,10.82,,---,0.54,VWS V12.08,2013-04-12 17:35:00,
2013-04-12 13:40:00,43.0,43.0,29.79,NNE,21,4.1,32.2,100,10.82,,---,0.54,VWS V12.08,2013-04-12 17:40:00,
2013-04-12 13:45:00,42.8,42.8,29.79,North,11,10.0,32.2,100,10.82,,---,0.54,VWS V12.08,2013-04-12 17:45:00,
2013-04-12 13:50:00,42.8,42.8,29.79,NE,41,5.2,32.2,100,10.82,,---,0.54,VWS V12.08,2013-04-12 17:50:00,
2013-04-12 13:55:00,42.8,42.8,29.79,North,356,11.4,32.2,100,10.83,,---,0.55,VWS V12.08,2013-04-12 17:55:00,
2013-04-12 14:00:00,42.7,42.7,29.79,North,10,7.8,32.2,100,10.83,,---,0.55,VWS V12.08,2013-04-12 18:00:00,
2013-04-12 14:05:00,42.7,42.7,29.78,NNE,31,12.4,32.2,100,10.83,,---,0.55,VWS V12.08,2013-04-12 18:05:00,
2013-04-12 14:10:00,42.8,42.8,29.78,ENE,58,9.5,32.2,100,10.83,,---,0.55,VWS V12.08,2013-04-12 18:10:00,
2013-04-12 14:16:00,42.6,42.6,29.78,NNE,14,4.5,32.2,100,10.83,,---,0.55,VWS V12.08,2013-04-12 18:16:00,
2013-04-12 14:21:00,42.5,42.5,29.78,NNE,25,9.4,32.2,100,10.84,,---,0.56,VWS V12.08,2013-04-12 18:21:00,
2013-04-12 14:26:00,42.5,42.5,29.77,NE,55,6.5,32.2,100,10.84,,---,0.56,VWS V12.08,2013-04-12 18:26:00,
2013-04-12 15:26:00,42.8,42.8,29.75,NE,41,9.8,32.2,100,10.84,,---,0.56,VWS V12.08,2013-04-12 19:26:00,
2013-04-12 15:32:00,42.7,42.7,29.75,NNE,20,3.4,32.2,100,10.84,,---,0.56,VWS V12.08,2013-04-12 19:32:00,
2013-04-12 15:37:00,42.8,42.8,29.74,NNE,17,8.5,32.2,100,10.84,,---,0.56,VWS V12.08,2013-04-12 19:37:00,
2013-04-12 15:42:00,42.9,42.9,29.74,NNE,30,16.9,32.2,100,10.84,,---,0.56,VWS V12.08,2013-04-12 19:42:00,
2013-04-12 15:47:00,42.6,42.6,29.74,NNE,24,15.8,32.2,100,10.84,,---,0.56,VWS V12.08,2013-04-12 19:47:00,
2013-04-12 15:52:00,42.8,42.8,29.74,NE,38,9.6,32.2,100,10.84,,---,0.56,VWS V12.08,2013-04-12 19:52:00,
2013-04-12 15:57:00,42.7,42.7,29.74,NNE,27,6.7,32.2,100,10.84,,---,0.56,VWS V12.08,2013-04-12 19:57:00,
2013-04-12 16:02:00,42.6,42.6,29.73,NNE,17,11.6,32.2,100,10.84,,---,0.56,VWS V12.08,2013-04-12 20:02:00,
2013-04-12 16:07:00,42.8,42.8,29.73,NE,41,1.6,32.2,100,10.84,,---,0.56,VWS V12.08,2013-04-12 20:07:00,
2013-04-12 16:12:00,42.9,42.9,29.73,NE,41,12.6,32.2,100,10.84,,---,0.56,VWS V12.08,2013-04-12 20:12:00,
2013-04-12 16:17:00,42.7,42.7,29.73,NE,34,5.5,32.2,100,10.84,,---,0.56,VWS V12.08,2013-04-12 20:17:00,
2013-04-12 16:22:00,42.8,42.8,29.73,ENE,68,7.6,32.2,100,10.84,,---,0.56,VWS V12.08,2013-04-12 20:22:00,
2013-04-12 16:27:00,42.6,42.6,29.73,North,357,17.5,32.2,100,10.84,,---,0.56,VWS V12.08,2013-04-12 20:27:00,
2013-04-12 16:32:00,42.8,42.8,29.73,North,6,6.3,32.2,100,10.84,,---,0.56,VWS V12.08,2013-04-12 20:32:00,
2013-04-12 16:37:00,42.6,42.6,29.73,North,7,13.6,32.2,100,10.84,,---,0.56,VWS V12.08,2013-04-12 20:37:00,
2013-04-12 16:42:00,42.6,42.6,29.73,North,352,10.7,32.2,100,10.84,,---,0.56,VWS V12.08,2013-04-12 20:42:00,
2013-04-12 16:47:00,42.8,42.8,29.73,NNE,14,10.9,32.2,100,10.84,,---,0.56,VWS V12.08,2013-04-12 20:47:00,
2013-04-12 16:52:00,42.5,42.5,29.72,North,11,14.2,32.2,100,10.84,,---,0.56,VWS V12.08,2013-04-12 20:52:00,
2013-04-12 16:57:00,42.6,42.6,29.72,ENE,58,9.3,32.2,100,10.84,,---,0.56,VWS V12.08,2013-04-12 20:57:00,
2013-04-12 17:02:00,42.7,42.7,29.73,NE,38,7.8,32.2,100,10.84,,---,0.56,VWS V12.08,2013-04-12 21:02:00,
2013-04-12 17:07:00,42.7,42.7,29.73,NNE,25,13.3,32.2,100,10.84,,---,0.56,VWS V12.08,2013-04-12 21:07:00,
2013-04-12 17:12:00,42.7,42.7,29.73,North,4,12.9,32.2,100,10.84,,---,0.56,VWS V12.08,2013-04-12 21:12:00,
2013-04-12 17:17:00,42.6,42.6,29.73,NNE,22,8.8,32.2,100,10.84,,---,0.56,VWS V12.08,2013-04-12 21:17:00,
2013-04-12 17:22:00,42.6,42.6,29.73,NE,42,16.5,32.2,100,10.84,,---,0.56,VWS V12.08,2013-04-12 21:22:00,
2013-04-12 17:27:00,42.7,42.7,29.73,NNE,14,16.0,32.2,100,10.84,,---,0.56,VWS V12.08,2013-04-12 21:27:00,
2013-04-12 17:32:00,42.6,42.6,29.73,North,359,7.0,32.2,100,10.84,,---,0.56,VWS V12.08,2013-04-12 21:32:00,
2013-04-12 17:37:00,42.8,42.8,29.73,NE,51,5.9,32.2,100,10.84,,---,0.56,VWS V12.08,2013-04-12 21:37:00,
2013-04-12 17:42:00,42.8,42.8,29.74,NNE,31,9.9,32.2,100,10.84,,---,0.56,VWS V12.08,2013-04-12 21:42:00,
2013-04-12 17:47:00,42.6,42.6,29.74,North,7,16.0,32.2,100,10.84,,---,0.56,VWS V12.08,2013-04-12 21:47:00,
2013-04-12 17:52:00,42.7,42.7,29.74,NE,42,5.3,32.2,100,10.84,,---,0.56,VWS V12.08,2013-04-12 21:52:00,
2013-04-12 17:57:00,42.7,42.7,29.74,North,7,10.7,32.2,100,10.84,,---,0.56,VWS V12.08,2013-04-12 21:57:00,
2013-04-12 18:02:00,42.8,42.8,29.73,ENE,76,5.1,32.2,100,10.84,,---,0.56,VWS V12.08,2013-04-12 22:02:00,
2013-04-12 18:07:00,42.8,42.8,29.73,NE,46,8.3,32.2,100,10.84,,---,0.56,VWS V12.08,2013-04-12 22:07:00,
2013-04-12 18:12:00,42.8,42.8,29.73,NE,44,0.0,32.2,100,10.84,,---,0.56,VWS V12.08,2013-04-12 22:12:00,
2013-04-12 18:18:00,42.8,42.8,29.72,NE,34,11.4,32.2,100,10.84,,---,0.56,VWS V12.08,2013-04-12 22:18:00,
2013-04-12 18:23:00,42.9,42.9,29.72,North,352,7.8,32.2,100,10.84,,---,0.56,VWS V12.08,2013-04-12 22:23:00,
2013-04-12 18:28:00,42.8,42.8,29.72,North,4,11.2,32.2,100,10.84,,---,0.56,VWS V12.08,2013-04-12 22:28:00,
2013-04-12 18:33:00,42.7,42.7,29.72,NNE,25,10.1,32.2,100,10.84,,---,0.56,VWS V12.08,2013-04-12 22:33:00,
2013-04-12 18:37:00,42.7,42.7,29.71,NW,308,10.6,32.2,100,10.84,,---,0.56,VWS V12.08,2013-04-12 22:37:00,
2013-04-12 18:42:00,42.9,42.9,29.71,North,352,8.6,32.2,100,10.84,,---,0.56,VWS V12.08,2013-04-12 22:42:00,
2013-04-12 18:47:00,42.7,42.7,29.72,North,6,9.5,32.2,100,10.84,,---,0.56,VWS V12.08,2013-04-12 22:47:00,
2013-04-12 18:52:00,42.6,42.6,29.72,North,8,2.9,32.2,100,10.84,,---,0.56,VWS V12.08,2013-04-12 22:52:00,
2013-04-12 18:57:00,42.8,42.8,29.72,North,1,7.5,32.2,100,10.84,,---,0.56,VWS V12.08,2013-04-12 22:57:00,
2013-04-12 19:02:00,43.0,43.0,29.72,NNE,14,6.1,32.2,100,10.84,,---,0.56,VWS V12.08,2013-04-12 23:02:00,
2013-04-12 19:07:00,42.9,42.9,29.71,North,1,12.0,32.2,100,10.84,,---,0.56,VWS V12.08,2013-04-12 23:07:00,
2013-04-12 19:12:00,42.9,42.9,29.71,NNE,22,10.3,32.2,100,10.84,,---,0.56,VWS V12.08,2013-04-12 23:12:00,
2013-04-12 19:17:00,42.9,42.9,29.71,NE,34,7.6,32.2,100,10.84,,---,0.56,VWS V12.08,2013-04-12 23:17:00,
2013-04-12 19:22:00,43.1,43.1,29.71,North,356,11.7,32.2,100,10.84,,---,0.56,VWS V12.08,2013-04-12 23:22:00,
2013-04-12 19:27:00,43.1,43.1,29.71,North,359,10.7,32.2,100,10.84,,---,0.56,VWS V12.08,2013-04-12 23:27:00,
2013-04-12 19:32:00,43.2,43.2,29.71,NE,34,9.2,32.2,100,10.84,,---,0.56,VWS V12.08,2013-04-12 23:32:00,
2013-04-12 19:37:00,43.2,43.2,29.70,NNE,30,5.5,32.2,100,10.84,,---,0.56,VWS V12.08,2013-04-12 23:37:00,
2013-04-12 19:42:00,43.2,43.2,29.70,North,354,8.5,32.2,100,10.84,,---,0.56,VWS V12.08,2013-04-12 23:42:00,
2013-04-12 19:47:00,43.2,43.2,29.70,North,4,7.8,32.2,100,10.84,,---,0.56,VWS V12.08,2013-04-12 23:47:00,
2013-04-12 19:52:00,43.3,43.3,29.71,NNE,25,0.0,32.2,100,10.84,,---,0.56,VWS V12.08,2013-04-12 23:52:00,
2013-04-12 19:57:00,43.2,43.2,29.70,North,6,7.9,32.2,100,10.84,,---,0.56,VWS V12.08,2013-04-12 23:57:00,
2013-04-12 20:02:00,43.3,43.3,29.71,NNE,21,6.1,32.2,100,10.84,,---,0.56,VWS V12.08,2013-04-13 00:02:00,
2013-04-12 20:08:00,43.1,43.1,29.71,North,11,9.9,32.2,100,10.84,,---,0.56,VWS V12.08,2013-04-13 00:08:00,
2013-04-12 20:13:00,43.2,43.2,29.71,North,6,11.2,32.2,100,10.84,,---,0.56,VWS V12.08,2013-04-13 00:13:00,
2013-04-12 20:18:00,43.3,43.3,29.70,NE,42,9.5,32.2,100,10.84,,---,0.56,VWS V12.08,2013-04-13 00:18:00,
2013-04-12 20:23:00,43.3,43.3,29.71,NNE,24,6.2,32.2,100,10.84,,---,0.56,VWS V12.08,2013-04-13 00:23:00,
2013-04-12 20:28:00,43.3,43.3,29.71,North,0,0.0,32.2,100,10.84,,---,0.56,VWS V12.08,2013-04-13 00:28:00,
2013-04-12 20:33:00,43.3,43.3,29.70,North,359,8.1,32.2,100,10.84,,---,0.56,VWS V12.08,2013-04-13 00:33:00,
2013-04-12 20:38:00,43.4,43.4,29.71,NE,38,12.9,32.2,100,10.84,,---,0.56,VWS V12.08,2013-04-13 00:38:00,
2013-04-12 20:43:00,43.3,43.3,29.71,North,359,7.1,32.2,100,10.84,,---,0.56,VWS V12.08,2013-04-13 00:43:00,
2013-04-12 20:48:00,43.4,43.4,29.71,NNE,13,3.2,32.2,100,10.84,,---,0.56,VWS V12.08,2013-04-13 00:48:00,
2013-04-12 20:53:00,43.4,43.4,29.71,North,359,8.8,32.2,100,10.84,,---,0.56,VWS V12.08,2013-04-13 00:53:00,
2013-04-12 20:58:00,43.5,43.5,29.71,NNW,340,8.0,32.2,100,10.84,,---,0.56,VWS V12.08,2013-04-13 00:58:00,
2013-04-12 21:03:00,43.3,43.3,29.71,NE,39,3.2,32.2,100,10.84,,---,0.56,VWS V12.08,2013-04-13 01:03:00,
2013-04-12 21:08:00,43.6,43.6,29.71,NNE,21,7.8,32.2,100,10.84,,---,0.56,VWS V12.08,2013-04-13 01:08:00,
2013-04-12 21:13:00,43.5,43.5,29.72,NE,42,0.0,32.2,100,10.84,,---,0.56,VWS V12.08,2013-04-13 01:13:00,
2013-04-12 21:18:00,43.5,43.5,29.72,NNE,18,11.0,32.2,100,10.84,,---,0.56,VWS V12.08,2013-04-13 01:18:00,
2013-04-12 21:23:00,43.5,43.5,29.72,North,11,0.0,32.2,100,10.84,,---,0.56,VWS V12.08,2013-04-13 01:23:00,
2013-04-12 21:28:00,43.5,43.5,29.72,NW,315,4.3,32.2,100,10.84,,---,0.56,VWS V12.08,2013-04-13 01:28:00,
2013-04-12 21:33:00,43.6,43.6,29.71,NNE,22,9.7,32.2,100,10.84,,---,0.56,VWS V12.08,2013-04-13 01:33:00,
2013-04-12 21:38:00,43.5,43.5,29.71,North,7,6.1,32.2,100,10.84,,---,0.56,VWS V12.08,2013-04-13 01:38:00,
2013-04-12 21:43:00,43.5,43.5,29.71,NNE,20,0.0,32.2,100,10.84,,---,0.56,VWS V12.08,2013-04-13 01:43:00,
2013-04-12 21:48:00,43.5,43.5,29.71,NNE,30,7.1,32.2,100,10.84,,---,0.56,VWS V12.08,2013-04-13 01:48:00,
2013-04-12 21:53:00,43.5,43.5,29.72,North,349,6.4,32.2,100,10.84,,---,0.56,VWS V12.08,2013-04-13 01:53:00,
2013-04-12 21:58:00,43.6,43.6,29.72,NE,53,9.8,32.2,100,10.84,,---,0.56,VWS V12.08,2013-04-13 01:58:00,
2013-04-12 22:03:00,43.6,43.6,29.72,North,8,6.3,32.2,100,10.84,,---,0.56,VWS V12.08,2013-04-13 02:03:00,
2013-04-12 22:08:00,43.4,43.4,29.72,North,11,5.0,32.2,100,10.84,,---,0.56,VWS V12.08,2013-04-13 02:08:00,
2013-04-12 22:13:00,43.7,43.7,29.73,NNE,20,7.3,32.2,100,10.84,,---,0.56,VWS V12.08,2013-04-13 02:13:00,
2013-04-12 22:18:00,43.5,43.5,29.73,North,357,6.3,32.2,100,10.84,,---,0.56,VWS V12.08,2013-04-13 02:18:00,
2013-04-12 22:23:00,43.7,43.7,29.73,NNE,14,6.6,32.2,100,10.84,,---,0.56,VWS V12.08,2013-04-13 02:23:00,
2013-04-12 22:28:00,43.5,43.5,29.72,NNW,329,4.7,32.2,100,10.84,,---,0.56,VWS V12.08,2013-04-13 02:28:00,
2013-04-12 22:33:00,43.6,43.6,29.72,North,359,7.7,32.2,100,10.84,,---,0.56,VWS V12.08,2013-04-13 02:33:00,
2013-04-12 22:38:00,43.5,43.5,29.72,NW,308,8.0,32.2,100,10.84,,---,0.56,VWS V12.08,2013-04-13 02:38:00,
2013-04-12 22:43:00,43.5,43.5,29.73,North,7,0.0,32.2,100,10.84,,---,0.56,VWS V12.08,2013-04-13 02:43:00,
2013-04-12 22:48:00,43.4,43.4,29.74,NW,318,5.2,32.2,100,10.84,,---,0.56,VWS V12.08,2013-04-13 02:48:00,
2013-04-12 22:53:00,43.2,43.2,29.74,North,357,8.5,32.2,100,10.84,,---,0.56,VWS V12.08,2013-04-13 02:53:00,
2013-04-12 22:58:00,43.1,43.1,29.74,NW,322,4.8,32.2,100,10.84,,---,0.56,VWS V12.08,2013-04-13 02:58:00,
2013-04-12 23:03:00,43.0,43.0,29.73,NE,37,7.0,32.2,100,10.84,,---,0.56,VWS V12.08,2013-04-13 03:03:00,
2013-04-12 23:08:00,42.9,42.9,29.73,NNW,347,4.8,32.2,100,10.84,,---,0.56,VWS V12.08,2013-04-13 03:08:00,
2013-04-12 23:13:00,42.9,42.9,29.73,NNE,17,5.8,32.2,100,10.84,,---,0.56,VWS V12.08,2013-04-13 03:13:00,
2013-04-12 23:18:00,42.8,42.8,29.72,North,354,8.0,32.2,100,10.84,,---,0.56,VWS V12.08,2013-04-13 03:18:00,
2013-04-12 23:23:00,42.9,42.9,29.71,NNE,27,4.3,32.2,100,10.84,,---,0.56,VWS V12.08,2013-04-13 03:23:00,
2013-04-12 23:28:00,42.9,42.9,29.72,North,6,8.3,32.2,100,10.84,,---,0.56,VWS V12.08,2013-04-13 03:28:00,
2013-04-12 23:33:00,42.7,42.7,29.72,NE,38,9.8,32.2,100,10.84,,---,0.56,VWS V12.08,2013-04-13 03:33:00,
2013-04-12 23:38:00,42.6,42.6,29.72,North,359,5.1,32.2,100,10.84,,---,0.56,VWS V12.08,2013-04-13 03:38:00,
2013-04-12 23:43:00,42.6,42.6,29.73,North,6,4.5,32.2,100,10.84,,---,0.56,VWS V12.08,2013-04-13 03:43:00,
2013-04-12 23:48:00,42.5,42.5,29.74,NNE,18,6.8,32.2,100,10.85,,---,0.57,VWS V12.08,2013-04-13 03:48:00,
2013-04-12 23:53:00,42.5,42.5,29.75,NNW,338,9.9,32.2,100,10.86,,---,0.58,VWS V12.08,2013-04-13 03:53:00,
2013-04-12 23:58:00,42.5,42.5,29.74,WNW,295,7.5,32.2,100,10.86,,---,0.58,VWS V12.08,2013-04-13 03:58:00,